Regional Weather Roundup
Issued by NWS

Home | Current Version | Previous Version | Graphics & Text | Print | Product List | Glossary On
Versions: 1 2 3 4 5 6 7 8 9 10 11 12 13 14 15 16 17 18 19 20 21 22 23 24 25 26 27 28 29 30 31 32 33 34 35 36 37 38 39 40 41 42 43 44 45 46 47 48 49 50
729
ASUS43 KLOT 281404
RWRIL

ILLINOIS REGIONAL WEATHER ROUNDUP
NATIONAL WEATHER SERVICE CHICAGO/ROMEOVILLE IL
900 AM CDT FRI JUL 28 2017

NOTE: "FAIR" INDICATES FEW OR NO CLOUDS BELOW 12,000 FEET WITH NO
SIGNIFICANT WEATHER AND/OR OBSTRUCTIONS TO VISIBILITY.

* THESE STATIONS ARE NOT UNDER NWS QUALITY CONTROL. THEY ALSO MAY NOT
  REPORT WEATHER SUCH AS PRECIPITATION OR FOG.

ILZ001-002-007-009-015-016-024-281500-
NORTHWEST ILLINOIS

CITY           SKY/WX    TMP DP  RH WIND       PRES   REMARKS
MOLINE         SUNNY     72  58  61 NE10      30.02R
STERLING*      SUNNY     70  61  73 NE9       30.02R
SAVANNA*       MOSUNNY   69  57  65 NE8       30.03S
$$

ILZ003-004-008-010-011-017-018-281500-
NORTH CENTRAL ILLINOIS

CITY           SKY/WX    TMP DP  RH WIND       PRES   REMARKS
ROCKFORD       MOSUNNY   73  58  59 NE14      30.03S
FREEPORT*      PTSUNNY   67  57  71 NE13      30.05R
ROCHELLE*      PTSUNNY   67  62  84 NE10      30.01F
DE KALB*       MOSUNNY   70  65  83 NE10      30.01F
PERU*          SUNNY     69  63  80 NE10      29.99S
$$

ILZ005-006-012>014-019>023-281500-
NORTHEAST ILLINOIS

CITY           SKY/WX    TMP DP  RH WIND       PRES   REMARKS
CHICAGO-OHARE  PTSUNNY   73  62  68 NE15      29.99R
CHICAGO-MIDWAY PTSUNNY   75  63  66 N17       29.98R
AURORA         MOSUNNY   72  65  78 NE14      30.00R
LANSING*       PTSUNNY   73  63  69 N10G17    29.97R
JOLIET*        MOSUNNY   74  67  77 N12G21    29.97S
WAUKEGAN       PTSUNNY   70  65  84 N12       30.01R
DUPAGE AIRPORT MOSUNNY   72  65  78 NE15      29.99R
WHEELING       MOSUNNY   72  65  78 NE10      30.01S
MORRIS*        SUNNY     73  66  80 NE7       29.97R
ROMEOVILLE*    MOSUNNY   73  63  70 NE15      29.98R
NORTHERLY ISL    N/A     73  64  73 NE12        N/A
$$

LMZ740>746-281500-
SOUTHERN LAKE MICHIGAN

STATION/POSITION SKY/WX   TEMP    WIND        PRES    VSBY  WAVE
                          AIR SEA DIR/SP/G                  HT/PER
                          (F)     (DEG/KT/KT) (MB)    (MI)  (FT/S)
SOUTHERN BUOY              69 72   40/ 12/ 14 1015.6          3/ 5
WILMETTE HARBOR            71 71   40/ 12/ 16   N/A           5/ 5
HARRISON CRIB              71      40/ 17/ 19   N/A
BURNHAM HARBOR             72                   N/A
CALUMET HARBOR             72     360/ 11/ 15 1014.7R
BURNS HARBOR               71      30/ 18/ 20 1015.2R
MICHIGAN CITY              68      20/ 20/ 21   N/A
MICHIGAN CITY 6N           70 73   50/ 14/ 17   N/A           4/ 6
ST. JOSEPH                 68 71   60/ 10/ 14 1015.0R         3/ 6
$$

ILZ025>027-034>036-040-047-049-050-058-095>099-281500-
WEST-CENTRAL ILLINOIS

CITY           SKY/WX    TMP DP  RH WIND       PRES   REMARKS
QUINCY         SUNNY     71  60  68 N9        29.98R
GALESBURG*     SUNNY     69  62  78 N12       30.00F
MACOMB*        SUNNY     69  62  78 N9        30.01S
JACKSONVILLE*  SUNNY     70  63  77 N7        29.96R
PITTSFIELD*    SUNNY     72  63  74 N7        29.98R
$$

ILZ028>032-037-038-041>044-048-051>054-059>061-281500-
CENTRAL ILLINOIS

CITY           SKY/WX    TMP DP  RH WIND       PRES   REMARKS
PONTIAC        SUNNY     73  70  92 N15       29.96S
BLOOMINGTON    PTSUNNY   71  65  81 N18       29.95S
DECATUR        SUNNY     73  66  78 NE12      29.92S
PEORIA         SUNNY     72  64  76 VRB7      29.97S
LACON*         SUNNY     70  64  80 N6        29.98R
LINCOLN*       SUNNY     72  67  82 N13       29.94S
SPRINGFIELD    SUNNY     73  66  78 N13       29.95R
TAYLORVILLE    SUNNY     70  65  84 N12       29.93R
$$

ILZ033-039-045-046-055>057-062-063-281500-
EAST-CENTRAL ILLINOIS

CITY           SKY/WX    TMP DP  RH WIND       PRES   REMARKS
CHAMPAIGN      CLOUDY    73  67  81 N10       29.91S
RANTOUL*       CLOUDY    73  70  89 N13       29.92R
MATTOON        CLOUDY    71  70  96 N12       29.89R
PARIS*         CLOUDY    70  70  99 NE8       29.90R FOG
$$

ILZ079-100>102-281500-
SOUTHWEST ILLINOIS

CITY           SKY/WX    TMP DP  RH WIND       PRES   REMARKS
ALTON          SUNNY     72  64  78 N10       29.93R
CAHOKIA*       SUNNY     77  67  71 N9        29.91S
SPARTA*        MOSUNNY   73  69  86 N8        29.91S
$$

ILZ064>066-069>071-074>076-080>082-084>086-088>090-092>094-281500-
SOUTH-CENTRAL ILLINOIS

CITY           SKY/WX    TMP DP  RH WIND       PRES   REMARKS
CARBONDALE     CLOUDY    75  75 100 NW7       29.88R FOG
CAIRO*         CLOUDY    77  75  92 N8        29.86R
EFFINGHAM*     SUNNY     73  70  91 N6        29.91S
MARION         CLOUDY    77  75  94 N9        29.88R FOG
MT. VERNON     PTSUNNY   73  70  90 NE5       29.88R
CENTRALIA*     SUNNY     74  70  87 N7        29.88S
SALEM*         PTSUNNY   74  69  81 N6        29.89S
METROPOLIS*    CLOUDY    78  75  92 NW7       29.86R FOG     HX  80
$$

ILZ067-068-072-073-078-083-087-091-281500-
SOUTHEAST ILLINOIS

CITY           SKY/WX    TMP DP  RH WIND       PRES   REMARKS
LAWRENCEVILLE  CLOUDY    73  71  93 N7        29.86R FOG
FLORA*         MOSUNNY   75  70  84 N5        29.88S
FAIRFIELD*     CLOUDY    73  70  91 N3        29.86S
HARRISBURG*    CLOUDY    75  74  97 N7        29.87R FOG
ROBINSON*      CLOUDY    72  70  94 N8        29.87S
CARMI*         CLOUDY    74  73  98 NW8       29.86R FOG
$$

ABBREVIATIONS USED IN REMARKS
   TC - TEMPERATURE IN CELSIUS
  WCI - WIND CHILL INDEX
   HX - HEAT INDEX
  VSB - VISIBILITY
$$





USA.gov is the U.S. government's official web portal to all federal, state and local government web resources and services.